Weather History for Eagle River, WI

Change the Weather History Date:

Thursday, September 26, 2013

  Actual Average Record
Temperature  
Mean Temperature 54 °F -  
Max Temperature 71 °F 66 °F 78 °F (2008)
Min Temperature 37 °F 38 °F 26 °F (2012)
Degree Days  
Heating Degree Days 11    
Growing Degree Days 4 (Base 50)    
Moisture  
Dew Point 46 °F    
Average Humidity 77    
Maximum Humidity 100    
Minimum Humidity 35    
Precipitation  
Precipitation 0.00 in - - ()
Sea Level Pressure  
Sea Level Pressure 30.06 in    
Wind  
Wind Speed 3 mph (SSE)    
Max Wind Speed 10 mph    
Max Gust Speed 17 mph    
Visibility 7 miles    
Events Fog    
Averages and records for this station are not official NWS values.
T = Trace of Precipitation, MM = Missing Value Source: NWS Daily Summary

Daily Weather History Graph

Daily Weather History Graph

Search for Another Location

Airport:

Trip Planner

Search our weather history database for the weather conditions in past years. The results will help you decide how hot, cold, wet, or windy it might be!

Date:

Astronomy

Sep. 26, 2013 Rise Set
Actual Time 6:49 AM CDT 6:46 PM CDT
Civil Twilight 6:19 AM CDT 7:16 PM CDT
Nautical Twilight 5:44 AM CDT 7:50 PM CDT
Astronomical Twilight 5:09 AM CDT 8:26 PM CDT
Moon 11:28 PM CDT (9/26) 1:57 PM CDT (9/26)
Length of Visible Light 12h 56m
Length of Day
11h 56m
Waning Gibbous, 54% of the Moon is Illuminated
Sep 26
Waning Gibbous
Sep 26
Last Quarter
Oct 4
New
Oct 11
First Quarter
Oct 18
Full

Hourly Weather History & Observations

Time (CDT) Temp. Windchill Dew Point Humidity Pressure Visibility Wind Dir Wind Speed Gust Speed Precip Events Conditions
12:15 AM 41.5 °F - 41.5 °F 100% 30.03 in 0.5 mi Calm Calm - N/A Fog Fog
12:35 AM 40.6 °F - 40.6 °F 100% 30.03 in 7.0 mi Calm Calm - N/A   Scattered Clouds
12:55 AM 40.8 °F - 40.8 °F 100% 30.04 in 0.2 mi Calm Calm - N/A Fog Fog
1:15 AM 40.8 °F - 40.8 °F 100% 30.04 in 0.2 mi Calm Calm - N/A Fog Fog
1:35 AM 40.5 °F - 40.5 °F 100% 30.04 in 0.2 mi Calm Calm - N/A Fog Fog
1:55 AM 40.3 °F - 40.3 °F 100% 30.05 in 0.2 mi Calm Calm - N/A Fog Fog
2:15 AM 39.9 °F - 39.9 °F 100% 30.05 in 0.2 mi Calm Calm - N/A Fog Fog
2:35 AM 40.1 °F - 40.1 °F 100% 30.05 in 0.2 mi Calm Calm - N/A Fog Fog
2:55 AM 38.7 °F - 38.7 °F 100% 30.05 in 0.2 mi Calm Calm - N/A Fog Fog
3:15 AM 38.7 °F - 38.7 °F 100% 30.05 in 0.2 mi Calm Calm - N/A Fog Fog
3:35 AM 37.4 °F - 37.4 °F 100% 30.05 in 0.5 mi Calm Calm - N/A Fog Fog
3:55 AM 40.8 °F - 40.8 °F 100% 30.06 in 0.2 mi Calm Calm - N/A Fog Fog
4:15 AM 42.1 °F - 42.1 °F 100% 30.06 in 0.2 mi Calm Calm - N/A   Unknown
4:35 AM 43.3 °F - 43.3 °F 100% 30.06 in 0.2 mi Calm Calm - N/A Fog Fog
4:55 AM 43.7 °F - 43.7 °F 100% 30.07 in 0.2 mi Calm Calm - N/A Fog Fog
5:15 AM 44.2 °F - 44.2 °F 100% 30.07 in 0.2 mi Calm Calm - N/A Fog Fog
5:35 AM 44.6 °F - 44.6 °F 100% 30.07 in 0.2 mi Calm Calm - N/A Fog Fog
5:55 AM 46.0 °F - 46.0 °F 100% 30.07 in 0.2 mi Calm Calm - N/A Fog Fog
6:15 AM 46.4 °F - 46.4 °F 100% 30.07 in 0.2 mi Calm Calm - N/A   Unknown
6:35 AM 45.9 °F - 45.9 °F 100% 30.07 in 0.2 mi Calm Calm - N/A   Unknown
6:55 AM 45.9 °F - 45.9 °F 100% 30.07 in 0.2 mi Calm Calm - N/A Fog Fog
7:15 AM 46.4 °F 44.3 °F 46.4 °F 100% 30.07 in 0.2 mi SSE 4.6 mph - N/A Fog Fog
7:35 AM 46.6 °F - 46.6 °F 100% 30.07 in 0.2 mi South 3.5 mph - N/A Fog Fog
7:55 AM 46.4 °F 45.2 °F 46.4 °F 100% 30.07 in 0.8 mi South 3.5 mph - N/A   Overcast
8:15 AM 46.4 °F 45.2 °F 46.4 °F 100% 30.07 in 3.0 mi South 3.5 mph - N/A   Mostly Cloudy
8:35 AM 47.5 °F - 47.5 °F 100% 30.08 in 10.0 mi South 4.6 mph - N/A   Scattered Clouds
8:55 AM 48.4 °F - 48.4 °F 100% 30.09 in 10.0 mi SSE 4.6 mph - N/A   Clear
9:15 AM 49.8 °F - 49.8 °F 100% 30.09 in 10.0 mi South 6.9 mph - N/A   Clear
9:35 AM 50.4 °F - 50.4 °F 100% 30.09 in 10.0 mi SSE 5.8 mph - N/A   Clear
9:55 AM 52.3 °F - 52.3 °F 100% 30.09 in 10.0 mi SSE 5.8 mph - N/A   Clear
10:15 AM 53.8 °F - 53.8 °F 100% 30.09 in 10.0 mi SSE 5.8 mph - N/A   Clear
10:35 AM 56.1 °F - 55.9 °F 99% 30.08 in 10.0 mi South 10.4 mph 17.3 mph N/A   Clear
10:55 AM 60.6 °F - 50.2 °F 68% 30.09 in 10.0 mi South 4.6 mph - N/A   Clear
11:15 AM 62.2 °F - 49.1 °F 62% 30.08 in 10.0 mi South 9.2 mph - N/A   Clear
11:35 AM 63.5 °F - 48.6 °F 58% 30.08 in 10.0 mi South 6.9 mph - N/A   Clear
11:55 AM 64.0 °F - 48.4 °F 57% 30.08 in 10.0 mi SSE 10.4 mph 16.1 mph N/A   Clear
12:15 PM 65.1 °F - 48.7 °F 55% 30.08 in 10.0 mi South 5.8 mph - N/A   Clear
12:35 PM 65.5 °F - 48.4 °F 54% 30.07 in 10.0 mi South 6.9 mph - N/A   Clear
12:55 PM 66.7 °F - 48.0 °F 51% 30.07 in 10.0 mi SSE 6.9 mph - N/A   Clear
1:15 PM 67.1 °F - 48.2 °F 51% 30.07 in 10.0 mi South 8.1 mph 16.1 mph N/A   Clear
1:35 PM 68.2 °F - 47.3 °F 47% 30.06 in 10.0 mi SSE 6.9 mph - N/A   Clear
1:55 PM 69.1 °F - 46.0 °F 44% 30.06 in 10.0 mi South 9.2 mph - N/A   Clear
2:15 PM 69.1 °F - 44.1 °F 40% 30.06 in 10.0 mi South 10.4 mph - N/A   Clear
2:35 PM 69.8 °F - 45.1 °F 41% 30.06 in 10.0 mi South 10.4 mph - N/A   Clear
2:55 PM 70.7 °F - 44.1 °F 38% 30.05 in 10.0 mi South 8.1 mph - N/A   Clear
3:15 PM 70.2 °F - 42.1 °F 36% 30.05 in 10.0 mi SSE 10.4 mph - N/A   Clear
3:35 PM 71.1 °F - 43.9 °F 38% 30.05 in 10.0 mi South 9.2 mph - N/A   Clear
3:55 PM 70.7 °F - 42.1 °F 35% 30.05 in 10.0 mi SSE 5.8 mph - N/A   Clear
4:15 PM 70.2 °F - 42.4 °F 37% 30.04 in 10.0 mi SSE 8.1 mph - N/A   Clear
4:35 PM 69.8 °F - 42.3 °F 37% 30.05 in 10.0 mi South 8.1 mph - N/A   Clear
4:55 PM 69.3 °F - 43.7 °F 40% 30.05 in 10.0 mi South 9.2 mph - N/A   Clear
5:15 PM 68.9 °F - 44.8 °F 42% 30.05 in 10.0 mi South 6.9 mph - N/A   Clear
5:35 PM 68.2 °F - 46.0 °F 45% 30.05 in 10.0 mi South 5.8 mph - N/A   Clear
5:55 PM 67.3 °F - 46.6 °F 47% 30.06 in 10.0 mi South 3.5 mph - N/A   Clear
6:15 PM 66.0 °F - 48.9 °F 54% 30.06 in 10.0 mi SSE 5.8 mph - N/A   Clear
6:35 PM 63.9 °F - 49.5 °F 59% 30.06 in 10.0 mi South 3.5 mph - N/A   Clear
6:55 PM 61.2 °F - 50.2 °F 67% 30.06 in 10.0 mi SSE 3.5 mph - N/A   Clear
7:15 PM 60.8 °F - 50.0 °F 68% 30.06 in 10.0 mi SSE 4.6 mph - N/A   Clear
7:35 PM 60.3 °F - 49.3 °F 67% 30.06 in 10.0 mi SSE 5.8 mph - N/A   Clear
7:55 PM 59.9 °F - 49.1 °F 67% 30.06 in 10.0 mi SSE 5.8 mph - N/A   Clear
8:15 PM 59.4 °F - 49.1 °F 69% 30.06 in 10.0 mi SSE 3.5 mph - N/A   Clear
8:35 PM 59.0 °F - 49.3 °F 70% 30.06 in 10.0 mi SSE 3.5 mph - N/A   Clear
8:55 PM 58.3 °F - 49.8 °F 73% 30.06 in 10.0 mi SSE 3.5 mph - N/A   Clear
9:15 PM 58.1 °F - 50.4 °F 75% 30.07 in 10.0 mi SSE 5.8 mph - N/A   Clear
9:35 PM 57.7 °F - 50.9 °F 78% 30.07 in 10.0 mi SSE 6.9 mph - N/A   Clear
9:55 PM 57.2 °F - 50.9 °F 79% 30.07 in 10.0 mi SSE 6.9 mph - N/A   Clear
10:15 PM 56.5 °F - 50.9 °F 82% 30.08 in 10.0 mi SSE 4.6 mph - N/A   Clear
10:35 PM 56.3 °F - 50.7 °F 82% 30.08 in 10.0 mi SSE 5.8 mph - N/A   Clear
10:55 PM 55.8 °F - 50.5 °F 83% 30.08 in 10.0 mi SSE 6.9 mph - N/A   Clear
11:15 PM 55.2 °F - 50.4 °F 84% 30.08 in 10.0 mi SSE 4.6 mph - N/A   Clear
11:35 PM 54.5 °F - 51.3 °F 89% 30.09 in 10.0 mi SSE 5.8 mph - N/A   Clear
11:55 PM 54.0 °F - 52.7 °F 95% 30.09 in 10.0 mi SSE 5.8 mph - N/A   Clear